Location: PACMO
(41.3967°N, 90.3760°W)
Time: 04:58:31
(UTC-05:00)

Amateur Radio Satellites - All Passes

Search period start: 27 August 2016 04:28
Search period end: 28 August 2016 04:28
Location: PACMO, 41.3967°N, 90.3760°W

Satellite Date Start Highest point End Downlink Frequencies (MHz)
Time Altitude Azimuth
STARS 27 Aug 04:31:43 04:36:09 75° 74° (ENE) 04:40:35 437.465
AO-7 27 Aug 04:55:51 05:04:13 78° 107° (ESE) 05:12:29 29.400- 29.500
HORYU 2 27 Aug 05:08:06 05:10:56 17° 93° (E) 05:13:44 437.375
CUBESAT XI-V 27 Aug 05:11:19 05:15:50 60° 74° (ENE) 05:20:25 437.345
BRITE-PL 27 Aug 05:12:29 05:13:25 10° 85° (E) 05:14:20 437.365/2234.400
YUBILEINY 27 Aug 05:30:03 05:36:43 25° 80° (E) 05:43:22 435.215
ITAMSAT 1 27 Aug 05:30:16 05:33:51 19° 298° (WNW) 05:37:25 435.822/435.867
KKS-1 27 Aug 05:32:55 05:35:00 13° 269° (W) 05:37:05 437.445
MOZHAYETS 4 27 Aug 05:34:40 05:35:37 11° 271° (W) 05:36:36
PHONESAT 2.4 27 Aug 05:37:17 05:40:15 66° 189° (S) 05:43:14 2401.200-2431.200
RS-15 27 Aug 05:37:21 05:46:52 26° 343° (NNW) 05:56:40 29.354- 29.394
AO-85 27 Aug 05:49:35 05:54:51 64° 119° (ESE) 05:59:50 145.980
Cosmos 2491 27 Aug 06:10:10 06:19:02 84° 263° (W) 06:27:52 435.465 / 435.565
Cosmos 2504 27 Aug 06:13:36 06:17:39 15° 78° (ENE) 06:21:36 435.465 / 435.565
Cubesat XI-IV 27 Aug 06:13:37 06:16:54 16° 91° (E) 06:20:10 437.490
STRAND 1 27 Aug 06:15:17 06:18:45 19° 63° (ENE) 06:22:13 437.568
CUTE-I 27 Aug 06:25:08 06:29:09 21° 93° (E) 06:33:08 437.470
GOMX 1 27 Aug 06:27:30 06:31:54 25° 92° (E) 06:36:06 467.674
NOAA 15 27 Aug 06:28:20 06:32:56 29° 96° (E) 06:37:32 137.62
DOVE 4 27 Aug 06:39:16 06:41:33 13° 87° (E) 06:43:47 437.250
HORYU 2 27 Aug 06:43:29 06:47:42 45° 289° (WNW) 06:51:53 437.375
BRITE-PL 27 Aug 06:46:56 06:52:41 80° 102° (ESE) 06:58:18 437.365/2234.400
AO-7 27 Aug 06:49:44 06:56:09 26° 306° (NW) 07:02:32 29.400- 29.500
CUBESAT XI-V 27 Aug 06:51:25 06:53:38 13° 270° (W) 06:55:50 437.345
NOAA 18 27 Aug 06:58:42 07:03:47 38° 98° (E) 07:08:49 137.9125
SO-50 27 Aug 07:04:59 07:06:13 11° 33° (NNE) 07:07:27 436.795
PHONESAT 2.4 27 Aug 07:13:52 07:16:21 24° 204° (SSW) 07:18:51 2401.200-2431.200
YUBILEINY 27 Aug 07:23:49 07:32:37 71° 280° (W) 07:41:29 435.215
LilacSat-2 27 Aug 07:25:39 07:29:27 84° 280° (W) 07:33:12 437.200
AO-85 27 Aug 07:31:39 07:35:40 22° 316° (NW) 07:39:33 145.980
HO-68 27 Aug 07:43:02 07:47:48 19° 91° (E) 07:52:32 435.675
Cubesat XI-IV 27 Aug 07:52:08 07:57:24 63° 287° (WNW) 08:02:37 437.490
STRAND 1 27 Aug 07:52:28 07:57:28 56° 259° (W) 08:02:30 437.568
RS-15 27 Aug 07:55:11 08:05:05 27° 19° (NNE) 08:15:00 29.354- 29.394
SEEDS 27 Aug 08:00:53 08:01:55 11° 89° (E) 08:02:57 437.485
Cosmos 2504 27 Aug 08:01:20 08:09:51 81° 95° (E) 08:17:47 435.465 / 435.565
CUTE-I 27 Aug 08:04:20 08:09:26 48° 290° (WNW) 08:14:31 437.470
GOMX 1 27 Aug 08:04:59 08:10:07 43° 290° (WNW) 08:15:01 467.674
NOAA 15 27 Aug 08:07:54 08:12:44 36° 292° (WNW) 08:17:31 137.62
Cosmos 2491 27 Aug 08:09:35 08:14:26 16° 284° (WNW) 08:19:17 435.465 / 435.565
DOVE 4 27 Aug 08:14:45 08:19:50 70° 285° (WNW) 08:24:36 437.250
CANX-2 27 Aug 08:18:50 08:22:33 29° 96° (E) 08:26:17 2200.000
ISS 27 Aug 08:18:58 08:20:59 15° 131° (SE) 08:23:01 145.825
PRISM 27 Aug 08:22:53 08:26:32 33° 70° (ENE) 08:30:16 437.425
CUTE 1.7 + AOD 2 27 Aug 08:25:03 08:28:47 30° 96° (E) 08:32:32 437.475
BRITE-PL 27 Aug 08:27:01 08:30:24 16° 299° (WNW) 08:33:47 437.365/2234.400
AAUSAT CUBESAT 2 27 Aug 08:32:48 08:34:56 14° 91° (E) 08:37:04 437.432
COMPASS 1 27 Aug 08:39:22 08:42:34 21° 94° (E) 08:45:44 437.405
NOAA 18 27 Aug 08:39:37 08:44:17 29° 295° (WNW) 08:48:55 137.9125
AIST 1 27 Aug 08:42:53 08:45:26 15° 85° (E) 08:48:00
SO-50 27 Aug 08:43:09 08:47:44 58° 54° (NE) 08:52:09 436.795
CINEMA 3 27 Aug 08:59:58 09:04:33 83° 282° (WNW) 09:08:52 145.822/145.860
UNISAT 6 27 Aug 09:04:01 09:05:27 11° 61° (ENE) 09:06:52 437.425
Oscar 11 27 Aug 09:09:56 09:12:18 14° 91° (E) 09:14:39 145.826/435.025
FUNcube-1 27 Aug 09:16:32 09:18:56 15° 92° (E) 09:21:18 145.935
UWE-3 27 Aug 09:20:54 09:24:33 28° 96° (E) 09:28:09 435.000/436.395/437.385
CUBEBUG 2 27 Aug 09:21:48 09:25:53 45° 98° (E) 09:29:52 437.445
YUBILEINY 27 Aug 09:26:48 09:31:14 14° 302° (WNW) 09:35:42 435.215
HO-68 27 Aug 09:29:03 09:36:15 79° 288° (WNW) 09:43:23 435.675
SEEDS 27 Aug 09:33:50 09:38:00 63° 285° (WNW) 09:42:10 437.485
CUSAT 1 27 Aug 09:35:37 09:40:49 25° 71° (ENE) 09:46:46 437.405
ZACube-1 27 Aug 09:36:46 09:40:20 27° 96° (E) 09:43:52 437.345
ANTELSAT 27 Aug 09:38:22 09:42:07 25° 68° (ENE) 09:45:48 437.575/2403.000
BEESAT 2 27 Aug 09:40:05 09:42:28 16° 110° (ESE) 09:44:52 435.950
ISS 27 Aug 09:53:52 09:57:07 61° 327° (NNW) 10:00:23 145.825
CANX-2 27 Aug 09:54:54 09:58:17 23° 292° (WNW) 10:01:39 2200.000
BEESAT 3 27 Aug 09:57:41 10:01:26 48° 118° (ESE) 10:05:15 437.485
Cosmos 2504 27 Aug 09:58:04 10:04:02 21° 294° (WNW) 10:09:46 435.465 / 435.565
PRISM 27 Aug 09:58:59 10:01:56 19° 266° (W) 10:04:55 437.425
CUTE 1.7 + AOD 2 27 Aug 10:01:08 10:04:29 23° 292° (WNW) 10:07:51 437.475
AAUSAT CUBESAT 2 27 Aug 10:06:39 10:10:40 48° 287° (WNW) 10:14:41 437.432
TIGRISAT 27 Aug 10:08:39 10:13:05 48° 72° (ENE) 10:17:27 435.000
RS-15 27 Aug 10:08:41 10:20:56 61° 49° (NE) 10:32:58 29.354- 29.394
COMPASS 1 27 Aug 10:14:26 10:18:09 32° 290° (WNW) 10:21:52 437.405
DELFI C3 27 Aug 10:15:01 10:18:35 30° 97° (E) 10:22:07 145.870
AIST 1 27 Aug 10:18:28 10:22:37 43° 282° (WNW) 10:26:49
QB50P2 27 Aug 10:24:01 10:25:31 12° 62° (ENE) 10:27:02 145.880/145.840
SO-50 27 Aug 10:25:00 10:27:41 16° 251° (WSW) 10:30:19 436.795
POLYITAN 1 27 Aug 10:26:28 10:28:03 12° 62° (ENE) 10:29:37 437.675
DANDE 27 Aug 10:27:24 10:31:41 23° 74° (ENE) 10:36:50 436.750
HUMSAT D 27 Aug 10:27:57 10:31:01 20° 94° (E) 10:34:05 437.325/437.525
NANOSAT C BR1 27 Aug 10:34:56 10:37:04 14° 63° (ENE) 10:39:12 145.865
UNISAT 6 27 Aug 10:36:54 10:41:32 80° 258° (WSW) 10:46:05 437.425
Oscar 11 27 Aug 10:44:32 10:48:42 49° 287° (WNW) 10:52:52 145.826/435.025
FUNcube-1 27 Aug 10:51:28 10:55:25 43° 287° (WNW) 10:59:18 145.935
PCSat 27 Aug 10:54:26 10:56:35 12° 102° (ESE) 10:58:45 145.827
UWE-3 27 Aug 10:57:34 11:00:53 23° 292° (WNW) 11:04:09 435.000/436.395/437.385
CUBEBUG 2 27 Aug 10:59:34 11:02:08 16° 296° (WNW) 11:04:39 437.445
Cosmos 2499 27 Aug 11:11:29 11:16:19 17° 80° (E) 11:20:58 435.465 / 435.565
ZACube-1 27 Aug 11:13:10 11:16:31 24° 292° (WNW) 11:19:51 437.345
ANTELSAT 27 Aug 11:14:32 11:18:40 32° 263° (W) 11:22:46 437.575/2403.000
BEESAT 2 27 Aug 11:16:06 11:19:55 45° 307° (NW) 11:23:46 435.950
QB50P1 27 Aug 11:16:32 11:20:30 39° 71° (ENE) 11:24:30 145.935-145.965
CUSAT 1 27 Aug 11:16:43 11:23:02 63° 264° (W) 11:30:37 437.405
BUGSAT 1 27 Aug 11:17:57 11:20:36 16° 65° (ENE) 11:23:14 437.445
HO-68 27 Aug 11:18:47 11:22:51 16° 307° (NW) 11:26:54 435.675
JAS-2 27 Aug 11:22:15 11:26:26 25° 63° (ENE) 11:30:51 435.910
POPSAT HIP 1 27 Aug 11:26:19 11:30:27 50° 73° (ENE) 11:34:36 437.405
ISS 27 Aug 11:31:48 11:34:06 17° 346° (NNW) 11:36:24 145.825
BEESAT 3 27 Aug 11:36:38 11:39:22 18° 316° (NW) 11:42:07 437.485
GONETS M04 27 Aug 11:39:49 11:47:41 39° 86° (E) 11:55:37
TIGRISAT 27 Aug 11:47:03 11:49:59 17° 268° (W) 11:52:54 435.000
AIST 2 27 Aug 11:47:38 11:50:01 15° 110° (ESE) 11:52:23 435.215
DELFI C3 27 Aug 11:50:14 11:53:14 21° 292° (WNW) 11:56:14 145.870
DUCHIFAT 1 27 Aug 11:54:25 11:58:41 88° 256° (WSW) 12:02:58 145.980
QB50P2 27 Aug 11:56:29 12:00:45 69° 258° (WSW) 12:05:02 145.880/145.840
VELOX 1 27 Aug 11:58:22 12:01:27 18° 93° (E) 12:04:30 145.980
POLYITAN 1 27 Aug 11:59:01 12:03:16 68° 259° (WSW) 12:07:33 437.675
CUBEBUG 1 27 Aug 12:01:10 12:04:47 24° 95° (E) 12:08:21 437.445
HUMSAT D 27 Aug 12:03:04 12:06:42 31° 289° (WNW) 12:10:17 437.325/437.525
NANOSAT C BR1 27 Aug 12:08:07 12:12:19 57° 260° (W) 12:16:32 145.865
DANDE 27 Aug 12:09:12 12:14:27 54° 263° (W) 12:21:15 436.750
AUBIESAT-1 27 Aug 12:14:40 12:18:41 56° 105° (ESE) 12:22:22 437.475
DX 1 27 Aug 12:17:03 12:20:11 19° 93° (E) 12:23:18 434.975-435.025
Oscar 19 27 Aug 12:17:29 12:20:39 17° 61° (ENE) 12:23:50 437.125/150
M-CUBED/EXP-1 PRIME 27 Aug 12:19:55 12:24:06 82° 106° (ESE) 12:27:55 437.505
SPROUT 27 Aug 12:21:26 12:24:05 16° 92° (E) 12:26:43 437.525
RS-15 27 Aug 12:21:47 12:33:05 45° 252° (WSW) 12:44:11 29.354- 29.394
PCSat 27 Aug 12:33:46 12:39:11 86° 298° (WNW) 12:44:39 145.827
ESTCUBE 1 27 Aug 12:36:13 12:40:47 88° 101° (E) 12:45:20 437.505/2401.250
AISAT 27 Aug 12:46:16 12:50:43 63° 102° (ESE) 12:55:07 437.250
50 SAT 27 Aug 12:46:20 12:49:58 64° 101° (ESE) 12:53:35 437.505
BUGSAT 1 27 Aug 12:51:30 12:55:35 46° 261° (W) 12:59:42 437.445
QB50P1 27 Aug 12:53:30 12:56:25 18° 267° (W) 12:59:22 145.935-145.965
UKube-1 27 Aug 12:57:32 13:01:38 40° 99° (E) 13:05:42 .
Cosmos 2499 27 Aug 13:00:15 13:08:30 86° 277° (W) 13:16:09 435.465 / 435.565
POPSAT HIP 1 27 Aug 13:04:11 13:06:30 14° 269° (W) 13:08:49 437.405
JAS-2 27 Aug 13:06:28 13:11:19 40° 263° (W) 13:16:27 435.910
ISS 27 Aug 13:09:37 13:11:33 15° 7° (N) 13:13:29 145.825
Gurwin Techsat 1B 27 Aug 13:23:11 13:27:48 31° 67° (ENE) 13:32:25 435.225
AIST 2 27 Aug 13:24:04 13:28:03 50° 306° (NW) 13:32:06 435.215
ITAMSAT 1 27 Aug 13:32:26 13:34:13 12° 58° (ENE) 13:36:00 435.822/435.867
VELOX 1 27 Aug 13:33:52 13:38:05 42° 289° (WNW) 13:42:17 145.980
GONETS M04 27 Aug 13:36:01 13:44:19 46° 286° (WNW) 13:52:44
CUBEBUG 1 27 Aug 13:37:09 13:41:04 31° 291° (WNW) 13:44:57 437.445
AUBIESAT-1 27 Aug 13:50:38 13:52:35 13° 304° (WNW) 13:54:29 437.475
DX 1 27 Aug 13:52:25 13:56:30 39° 290° (WNW) 14:00:34 434.975-435.025
Oscar 19 27 Aug 13:54:18 13:59:25 66° 258° (WSW) 14:04:36 437.125/150
SPROUT 27 Aug 13:56:10 14:00:15 43° 288° (WNW) 14:04:17 437.525
M-CUBED/EXP-1 PRIME 27 Aug 13:57:31 13:57:51 10° 306° (NW) 13:58:11 437.505
AO-7 27 Aug 14:04:40 14:11:02 25° 53° (NE) 14:17:22 29.400- 29.500
TISAT 1 27 Aug 14:16:15 14:20:27 65° 102° (ESE) 14:24:36 437.305
ESTCUBE 1 27 Aug 14:16:30 14:16:52 10° 300° (WNW) 14:17:14 437.505/2401.250
PCSat 27 Aug 14:20:04 14:23:24 16° 319° (NW) 14:26:44 145.827
O/OREOS (USA 219) 27 Aug 14:21:27 14:25:55 76° 111° (ESE) 14:30:27 437.305
AO-85 27 Aug 14:21:57 14:26:09 49° 53° (NE) 14:30:01 145.980
AISAT 27 Aug 14:24:26 14:26:38 14° 298° (WNW) 14:28:51 437.250
UKube-1 27 Aug 14:34:20 14:37:23 19° 295° (WNW) 14:40:26 .
ITUPSAT 1 27 Aug 14:42:56 14:46:42 23° 94° (E) 14:50:28 437.325
ISS 27 Aug 14:45:44 14:48:46 33° 26° (NNE) 14:51:47 145.825
Cosmos 2499 27 Aug 14:57:59 15:02:39 16° 296° (WNW) 15:07:10 435.465 / 435.565
Gurwin Techsat 1B 27 Aug 15:02:51 15:07:38 34° 263° (W) 15:12:28 435.225
ITAMSAT 1 27 Aug 15:07:41 15:12:53 86° 75° (ENE) 15:18:06 435.822/435.867
SWISSCUBE 27 Aug 15:15:30 15:20:12 56° 101° (E) 15:24:52 437.505
BEESAT 27 Aug 15:32:38 15:37:25 76° 103° (ESE) 15:42:10 436.000
YUBILEINY 27 Aug 15:41:13 15:43:42 11° 54° (NE) 15:46:11 435.215
KKS-1 27 Aug 15:47:02 15:48:18 11° 90° (E) 15:49:33 437.445
MOZHAYETS 4 27 Aug 15:49:24 15:52:22 17° 92° (E) 15:55:21
TISAT 1 27 Aug 15:53:59 15:55:33 12° 298° (WNW) 15:57:06 437.305
AO-7 27 Aug 15:54:32 16:02:55 81° 254° (WSW) 16:11:19 29.400- 29.500
AO-85 27 Aug 16:03:43 16:06:03 15° 252° (WSW) 16:08:19 145.980
O/OREOS (USA 219) 27 Aug 16:03:50 16:05:54 13° 309° (NW) 16:07:58 437.305
HORYU 2 27 Aug 16:06:28 16:09:20 17° 64° (ENE) 16:12:12 437.375
ITUPSAT 1 27 Aug 16:20:15 16:24:38 37° 291° (WNW) 16:29:01 437.325
ISS 27 Aug 16:22:14 16:25:13 32° 223° (SW) 16:28:10 145.825
STARS 27 Aug 16:22:48 16:24:55 13° 91° (E) 16:27:01 437.465
BRITE-PL 27 Aug 16:23:18 16:24:50 11° 57° (ENE) 16:26:24 437.365/2234.400
NOAA 18 27 Aug 16:49:18 16:50:42 11° 55° (NE) 16:52:07 137.9125
ITAMSAT 1 27 Aug 16:51:42 16:52:59 11° 271° (W) 16:54:16 435.822/435.867
SWISSCUBE 27 Aug 16:54:33 16:57:32 17° 297° (WNW) 17:00:32 437.505
CUBESAT XI-V 27 Aug 17:09:01 17:11:47 15° 91° (E) 17:14:33 437.345
BEESAT 27 Aug 17:12:28 17:14:33 13° 300° (WNW) 17:16:39 436.000
Cosmos 2491 27 Aug 17:17:21 17:23:43 23° 80° (E) 17:30:06 435.465 / 435.565
KKS-1 27 Aug 17:20:51 17:25:19 68° 285° (WNW) 17:29:43 437.445
MOZHAYETS 4 27 Aug 17:25:23 17:29:47 47° 288° (WNW) 17:34:10
YUBILEINY 27 Aug 17:34:02 17:42:43 59° 78° (ENE) 17:51:16 435.215
GOMX 1 27 Aug 17:35:14 17:39:26 26° 65° (ENE) 17:43:49 467.674
Cubesat XI-IV 27 Aug 17:35:14 17:39:45 28° 66° (ENE) 17:44:15 437.490
HORYU 2 27 Aug 17:41:11 17:45:30 48° 260° (W) 17:49:50 437.375
DOVE 4 27 Aug 17:44:09 17:47:11 16° 61° (ENE) 17:50:17 437.250
CUTE-I 27 Aug 17:46:46 17:51:35 36° 68° (ENE) 17:56:25 437.470
NOAA 15 27 Aug 17:48:19 17:53:19 47° 70° (ENE) 17:58:21 137.62
AO-7 27 Aug 17:52:20 17:56:51 15° 271° (W) 18:01:23 29.400- 29.500
Cosmos 2504 27 Aug 17:54:54 18:00:48 26° 69° (ENE) 18:06:36 435.465 / 435.565
STARS 27 Aug 17:57:18 18:01:37 56° 287° (WNW) 18:05:53 437.465
BEESAT 2 27 Aug 17:57:26 17:59:27 13° 40° (NE) 18:01:27 435.950
BRITE-PL 27 Aug 17:57:31 18:02:20 85° 76° (ENE) 18:07:36 437.365/2234.400
LilacSat-2 27 Aug 18:07:23 18:11:04 45° 73° (ENE) 18:14:45 437.200
HO-68 27 Aug 18:13:31 18:17:34 16° 53° (NE) 18:21:37 435.675
BEESAT 3 27 Aug 18:14:49 18:18:22 30° 50° (NE) 18:21:54 437.485
NOAA 18 27 Aug 18:24:52 18:30:23 73° 74° (ENE) 18:35:55 137.9125
CINEMA 3 27 Aug 18:27:30 18:29:05 11° 60° (ENE) 18:30:41 145.822/145.860
CUBESAT XI-V 27 Aug 18:44:53 18:49:29 54° 287° (WNW) 18:54:05 437.345
Cosmos 2491 27 Aug 19:10:54 19:19:36 74° 279° (W) 19:28:24 435.465 / 435.565
CANX-2 27 Aug 19:12:03 19:15:17 22° 67° (ENE) 19:18:31 2200.000
GOMX 1 27 Aug 19:12:30 19:17:14 40° 264° (W) 19:22:17 467.674
Cubesat XI-IV 27 Aug 19:14:43 19:19:39 38° 262° (W) 19:24:37 437.490
CUTE 1.7 + AOD 2 27 Aug 19:18:09 19:21:24 22° 68° (ENE) 19:24:39 437.475
DOVE 4 27 Aug 19:19:04 19:24:12 73° 259° (WSW) 19:29:32 437.250
CUTE-I 27 Aug 19:27:03 19:31:39 29° 264° (W) 19:36:16 437.470
NOAA 15 27 Aug 19:29:20 19:33:18 22° 267° (W) 19:37:19 137.62
COMPASS 1 27 Aug 19:31:05 19:33:26 15° 65° (ENE) 19:35:48 437.405
YUBILEINY 27 Aug 19:31:43 19:38:54 30° 277° (W) 19:46:04 435.215
BEESAT 2 27 Aug 19:33:46 19:37:47 78° 239° (WSW) 19:41:46 435.950
PCSat 27 Aug 19:39:44 19:42:42 15° 39° (NE) 19:45:40 145.827
BRITE-PL 27 Aug 19:40:48 19:41:38 10° 275° (W) 19:42:28 437.365/2234.400
LilacSat-2 27 Aug 19:43:59 19:45:37 12° 269° (W) 19:47:13 437.200
Cosmos 2504 27 Aug 19:47:35 19:54:36 55° 269° (W) 20:01:31 435.465 / 435.565
BEESAT 3 27 Aug 19:52:40 19:55:54 24° 247° (WSW) 19:59:09 437.485
HO-68 27 Aug 19:56:58 20:04:09 78° 72° (ENE) 20:11:22 435.675
CINEMA 3 27 Aug 20:00:25 20:05:27 88° 78° (ENE) 20:10:28 145.822/145.860
STRAND 1 27 Aug 20:02:46 20:07:43 48° 100° (E) 20:12:39 437.568
Oscar 11 27 Aug 20:05:49 20:07:31 12° 63° (ENE) 20:09:14 145.826/435.025
AIST 2 27 Aug 20:08:00 20:10:18 14° 41° (NE) 20:12:34 435.215
NOAA 18 27 Aug 20:08:33 20:11:35 15° 269° (W) 20:14:37 137.9125
FUNcube-1 27 Aug 20:12:36 20:14:53 14° 64° (ENE) 20:17:08 145.935
UWE-3 27 Aug 20:17:42 20:21:30 26° 69° (ENE) 20:25:13 435.000/436.395/437.385
CUBEBUG 2 27 Aug 20:19:20 20:23:43 40° 71° (ENE) 20:28:00 437.445
SEEDS 27 Aug 20:25:09 20:29:19 87° 77° (ENE) 20:33:29 437.485
AIST 1 27 Aug 20:25:10 20:29:24 43° 78° (ENE) 20:33:34
ZACube-1 27 Aug 20:32:35 20:36:10 24° 68° (ENE) 20:39:40 437.345
CANX-2 27 Aug 20:47:13 20:50:57 31° 263° (W) 20:54:44 2200.000
CUTE 1.7 + AOD 2 27 Aug 20:53:20 20:57:04 31° 264° (W) 21:00:49 437.475
AAUSAT CUBESAT 2 27 Aug 20:56:23 21:00:29 76° 259° (WSW) 21:04:37 437.432
DELFI C3 27 Aug 21:01:36 21:04:20 18° 67° (ENE) 21:07:05 145.870
COMPASS 1 27 Aug 21:04:38 21:08:37 46° 261° (W) 21:12:36 437.405
Cosmos 2491 27 Aug 21:13:36 21:18:11 15° 302° (WNW) 21:22:47 435.465 / 435.565
HUMSAT D 27 Aug 21:20:01 21:22:29 16° 65° (ENE) 21:24:56 437.325/437.525
PCSat 27 Aug 21:21:35 21:27:03 76° 61° (ENE) 21:32:27 145.827
M-CUBED/EXP-1 PRIME 27 Aug 21:33:36 21:35:52 14° 56° (NE) 21:38:07 437.505
Oscar 11 27 Aug 21:38:50 21:43:07 65° 259° (W) 21:47:24 145.826/435.025
PRISM 27 Aug 21:38:55 21:43:01 54° 100° (E) 21:47:07 437.425
CINEMA 3 27 Aug 21:42:26 21:43:10 10° 273° (W) 21:43:54 145.822/145.860
STRAND 1 27 Aug 21:42:46 21:46:32 21° 296° (WNW) 21:50:19 437.568
AIST 2 27 Aug 21:45:07 21:49:18 79° 239° (WSW) 21:53:29 435.215
FUNcube-1 27 Aug 21:46:16 21:50:39 58° 260° (W) 21:54:59 145.935
HO-68 27 Aug 21:47:42 21:52:34 19° 269° (W) 21:57:27 435.675
GONETS M04 27 Aug 21:50:16 21:56:18 20° 62° (ENE) 22:02:17
UWE-3 27 Aug 21:53:49 21:57:51 30° 264° (W) 22:01:49 435.000/436.395/437.385
CUBEBUG 2 27 Aug 21:56:58 22:00:26 20° 267° (W) 22:03:52 437.445
AIST 1 27 Aug 22:03:56 22:06:35 16° 275° (W) 22:09:13
ZACube-1 27 Aug 22:08:17 22:12:17 32° 263° (W) 22:16:14 437.345
UNISAT 6 27 Aug 22:29:29 22:32:39 20° 93° (E) 22:35:47 437.425
DELFI C3 27 Aug 22:35:23 22:38:57 33° 263° (W) 22:42:32 145.870
Cosmos 2499 27 Aug 22:51:50 22:57:57 30° 71° (ENE) 23:04:04 435.465 / 435.565
O/OREOS (USA 219) 27 Aug 22:53:08 22:56:08 17° 54° (NE) 22:59:08 437.305
HUMSAT D 27 Aug 22:53:45 22:57:45 45° 261° (W) 23:01:43 437.325/437.525
VELOX 1 27 Aug 22:56:06 22:59:00 17° 64° (ENE) 23:01:55 145.980
CUBEBUG 1 27 Aug 22:57:27 23:00:44 21° 66° (ENE) 23:04:03 437.445
SO-50 27 Aug 22:58:21 23:01:46 19° 110° (ESE) 23:05:10 436.795
AUBIESAT-1 27 Aug 22:59:21 23:03:58 74° 70° (ENE) 23:08:36 437.475
M-CUBED/EXP-1 PRIME 27 Aug 23:05:02 23:09:42 81° 252° (WSW) 23:14:26 437.505
ANTELSAT 27 Aug 23:05:41 23:09:52 49° 100° (E) 23:13:59 437.575/2403.000
PCSat 27 Aug 23:06:53 23:09:45 14° 257° (WSW) 23:12:34 145.827
DX 1 27 Aug 23:13:00 23:15:55 18° 64° (ENE) 23:18:51 434.975-435.025
PRISM 27 Aug 23:15:44 23:17:52 14° 297° (WNW) 23:20:00 437.425
SPROUT 27 Aug 23:15:50 23:17:58 14° 63° (ENE) 23:20:07 437.525
50 SAT 27 Aug 23:23:51 23:26:53 27° 70° (ENE) 23:29:57 437.505
ESTCUBE 1 27 Aug 23:35:30 23:39:58 81° 76° (ENE) 23:44:29 437.505/2401.250
TIGRISAT 27 Aug 23:36:33 23:40:51 77° 286° (WNW) 23:45:05 435.000
DUCHIFAT 1 27 Aug 23:39:58 23:42:15 14° 91° (E) 23:44:32 145.980
QB50P2 27 Aug 23:42:14 23:45:14 19° 93° (E) 23:48:13 145.880/145.840
AISAT 27 Aug 23:43:20 23:47:41 55° 73° (ENE) 23:52:05 437.250
POLYITAN 1 27 Aug 23:44:44 23:47:45 19° 93° (E) 23:50:44 437.675
GONETS M04 27 Aug 23:45:30 23:54:25 89° 71° (ENE) 00:03:17
UKube-1 27 Aug 23:52:02 23:55:56 34° 70° (ENE) 23:59:53 .
NANOSAT C BR1 27 Aug 23:53:02 23:56:18 22° 94° (E) 23:59:33 145.865
UNISAT 6 28 Aug 00:05:34 00:09:28 34° 290° (WNW) 00:13:19 437.425
JAS-2 28 Aug 00:13:23 00:19:16 29° 95° (E) 00:25:36 435.910
CUSAT 1 28 Aug 00:22:16 00:25:00 36° 286° (WNW) 00:28:21 437.405
VELOX 1 28 Aug 00:30:48 00:35:05 47° 261° (W) 00:39:25 145.980
O/OREOS (USA 219) 28 Aug 00:31:24 00:35:54 56° 252° (WSW) 00:40:24 437.305
CUBEBUG 1 28 Aug 00:32:43 00:36:46 37° 262° (W) 00:40:53 437.445
RS-15 28 Aug 00:33:18 00:43:06 35° 104° (ESE) 00:53:20 29.354- 29.394
BUGSAT 1 28 Aug 00:33:41 00:37:03 24° 95° (E) 00:40:22 437.445
QB50P1 28 Aug 00:36:28 00:40:42 73° 102° (ESE) 00:44:53 145.935-145.965
AUBIESAT-1 28 Aug 00:37:01 00:38:49 12° 266° (W) 00:40:37 437.475
SO-50 28 Aug 00:37:06 00:41:52 54° 307° (NW) 00:46:36 436.795
ANTELSAT 28 Aug 00:43:43 00:46:10 15° 296° (WNW) 00:48:36 437.575/2403.000
Cosmos 2499 28 Aug 00:44:35 00:51:14 46° 270° (W) 00:57:56 435.465 / 435.565
POPSAT HIP 1 28 Aug 00:46:30 00:50:45 87° 284° (WNW) 00:54:56 437.405
DX 1 28 Aug 00:47:35 00:51:45 44° 261° (W) 00:55:58 434.975-435.025
SPROUT 28 Aug 00:49:10 00:53:25 58° 259° (W) 00:57:41 437.525
50 SAT 28 Aug 00:58:00 01:00:29 18° 266° (W) 01:02:59 437.505
BEESAT 28 Aug 01:05:55 01:06:37 10° 59° (ENE) 01:07:19 436.000
TISAT 1 28 Aug 01:07:37 01:11:42 47° 72° (ENE) 01:15:47 437.305
DUCHIFAT 1 28 Aug 01:14:10 01:18:12 47° 288° (WNW) 01:22:12 145.980
QB50P2 28 Aug 01:17:16 01:21:09 36° 289° (WNW) 01:25:00 145.880/145.840
PHONESAT 2.4 28 Aug 01:18:55 01:20:23 13° 150° (SSE) 01:21:50 2401.200-2431.200
POLYITAN 1 28 Aug 01:19:48 01:23:40 35° 289° (WNW) 01:27:29 437.675
DANDE 28 Aug 01:21:55 01:23:54 19° 288° (WNW) 01:26:01 436.750
AISAT 28 Aug 01:22:13 01:24:30 14° 269° (W) 01:26:47 437.250
NANOSAT C BR1 28 Aug 01:28:21 01:32:03 31° 291° (WNW) 01:35:45 145.865
UKube-1 28 Aug 01:28:47 01:32:03 21° 266° (W) 01:35:21 .
Gurwin Techsat 1B 28 Aug 01:41:27 01:42:58 11° 88° (E) 01:44:28 435.225
GONETS M04 28 Aug 01:44:30 01:49:56 18° 283° (WNW) 01:55:23
ITUPSAT 1 28 Aug 01:49:44 01:53:44 28° 67° (ENE) 01:57:45 437.325
JAS-2 28 Aug 01:57:51 02:04:28 56° 289° (WNW) 02:11:46 435.910
Oscar 19 28 Aug 02:05:49 02:10:47 43° 99° (E) 02:15:43 437.125/150
BUGSAT 1 28 Aug 02:08:53 02:12:23 27° 292° (WNW) 02:15:51 437.445
QB50P1 28 Aug 02:14:57 02:15:51 11° 299° (WNW) 02:16:46 145.935-145.965
SWISSCUBE 28 Aug 02:21:49 02:26:31 65° 73° (ENE) 02:31:14 437.505
SO-50 28 Aug 02:22:06 02:23:24 11° 327° (NNW) 02:24:42 436.795
BEESAT 28 Aug 02:38:52 02:43:37 87° 78° (ENE) 02:48:25 436.000
RS-15 28 Aug 02:43:03 02:54:36 71° 307° (NW) 03:06:50 29.354- 29.394
TISAT 1 28 Aug 02:45:11 02:47:36 15° 268° (W) 02:50:00 437.305
KKS-1 28 Aug 02:45:26 02:47:04 12° 61° (ENE) 02:48:41 437.445
MOZHAYETS 4 28 Aug 02:51:43 02:54:40 17° 64° (ENE) 02:57:38
PHONESAT 2.4 28 Aug 02:53:23 02:56:17 45° 165° (SSE) 02:59:11 2401.200-2431.200
Gurwin Techsat 1B 28 Aug 03:18:14 03:23:35 87° 286° (WNW) 03:28:54 435.225
STARS 28 Aug 03:19:57 03:22:04 13° 62° (ENE) 03:24:13 437.465
ITAMSAT 1 28 Aug 03:20:50 03:25:22 30° 96° (E) 03:29:51 435.822/435.867
ITUPSAT 1 28 Aug 03:27:14 03:31:27 31° 263° (W) 03:35:42 437.325
Cosmos 2491 28 Aug 03:28:36 03:30:45 11° 54° (NE) 03:32:53 435.465 / 435.565
Oscar 19 28 Aug 03:45:43 03:49:49 24° 295° (WNW) 03:53:55 437.125/150
JAS-2 28 Aug 03:47:09 03:48:18 10° 306° (NW) 03:49:28 435.910
AO-7 28 Aug 03:56:35 04:03:57 34° 97° (E) 04:11:16 29.400- 29.500
SWISSCUBE 28 Aug 04:02:33 04:04:45 13° 270° (W) 04:06:57 437.505
CUBESAT XI-V 28 Aug 04:12:49 04:15:34 16° 63° (ENE) 04:18:20 437.345
KKS-1 28 Aug 04:18:31 04:23:00 75° 257° (WSW) 04:27:31 437.445
